Hamilton Island, Australia

10:59 AM AEST on July 23, 2017 (GMT +1000)
Hamilton Island

Weather History for YBHM - April, 2013

Change the Weather History Date:

Saturday, April 6, 2013

  Actual Average Record
Temperature  
Mean Temperature 73 °F -  
Max Temperature 77 °F - - ()
Min Temperature 69 °F - - ()
Cooling Degree Days 8    
Growing Degree Days 23 (Base 50)    
Moisture  
Dew Point 72 °F    
Average Humidity 92    
Maximum Humidity 100    
Minimum Humidity 71    
Precipitation  
Precipitation 0.47 in - - ()
Sea Level Pressure  
Sea Level Pressure 29.97 in    
Wind  
Wind Speed 24 mph ()    
Max Wind Speed 39 mph    
Max Gust Speed 51 mph    
T = Trace of Precipitation, MM = Missing Value Source: Averaged Metar Reports

Daily Weather History Graph

Daily Weather History Graph

Search for Another Location

Airport or City:

Trip Planner

Search our weather history database for the weather conditions in past years. The results will help you decide how hot, cold, wet, or windy it might be!

Date:

Astronomy

Apr. 06, 2013 Rise Set
Actual Time 6:12 AM AEST 6:00 PM AEST
Civil Twilight 5:50 AM AEST 6:22 PM AEST
Nautical Twilight 5:24 AM AEST 6:48 PM AEST
Astronomical Twilight 4:59 AM AEST 7:13 PM AEST
Moon 2:08 AM AEST (4/6) 3:00 PM AEST (4/6)
Length of Visible Light 12h 32m
Length of Day
11h 47m
Waning Crescent, 20% of the Moon is Illuminated
Apr 6
Waning Crescent
Apr 10
New
Apr 18
First Quarter
Apr 26
Full
May 2
Last Quarter

Hourly Weather History & Observations

Time (AEST) Temp. Dew Point Humidity Pressure Visibility Wind Dir Wind Speed Gust Speed Precip Events Conditions
12:00 AM 77 °F 69 °F 71% 30.02 in - SE 27.6 mph - -  
12:00 AM 77.0 °F 69.8 °F 78% 30.01 in - SE 27.6 mph - N/A   Unknown
12:30 AM 77.0 °F 69.8 °F 78% 30.01 in - SE 27.6 mph - N/A   Unknown
1:00 AM 75.2 °F 71.6 °F 89% 30.01 in - SE 27.6 mph - N/A   Unknown
1:30 AM 75.2 °F 71.6 °F 89% 29.98 in - SE 28.8 mph - N/A   Unknown
2:00 AM 75.2 °F 71.6 °F 89% 29.98 in - SE 29.9 mph - N/A   Unknown
2:30 AM 77.0 °F 71.6 °F 83% 29.98 in - SE 29.9 mph - N/A   Unknown
3:00 AM 76 °F 71 °F 78% 29.97 in - SE 33.4 mph - -  
3:00 AM 75.2 °F 69.8 °F 83% 29.95 in - SE 33.4 mph - N/A   Unknown
3:30 AM 75.2 °F 71.6 °F 89% 29.95 in - SE 31.1 mph - N/A   Unknown
4:00 AM 73.4 °F 73.4 °F 100% 29.95 in - SE 27.6 mph - N/A   Unknown
4:30 AM 75.2 °F 71.6 °F 89% 29.95 in - SE 29.9 mph - N/A   Unknown
5:00 AM 75.2 °F 71.6 °F 89% 29.98 in - SE 28.8 mph - N/A   Unknown
5:39 AM 73.4 °F 71.6 °F 94% 29.98 in - SE 29.9 mph 44.9 mph N/A   Unknown
6:00 AM 71 °F 71 °F 100% 29.99 in - SE 20.7 mph - -  
6:00 AM 71.6 °F 71.6 °F 100% 29.98 in - SE 20.7 mph - N/A   Unknown
6:30 AM 71.6 °F 71.6 °F 100% 29.98 in - SSE 25.3 mph - N/A   Unknown
7:00 AM 71.6 °F 71.6 °F 100% 29.98 in - SSE 24.2 mph - N/A   Unknown
7:30 AM 73.4 °F 73.4 °F 100% 30.01 in - SSE 27.6 mph - N/A   Unknown
8:00 AM 73.4 °F 71.6 °F 94% 30.01 in - SSE 27.6 mph - N/A   Unknown
8:30 AM 73.4 °F 73.4 °F 100% 30.01 in - SSE 27.6 mph - N/A   Unknown
9:00 AM 74 °F 73 °F 95% 30.02 in - SSE 25.3 mph - -  
9:00 AM 75.2 °F 73.4 °F 94% 30.01 in - SSE 25.3 mph - N/A   Unknown
9:30 AM 73.4 °F 71.6 °F 94% 30.01 in - South 20.7 mph - N/A   Unknown
9:50 AM 73.4 °F 73.4 °F 100% 30.01 in - South 19.6 mph 31.1 mph N/A   Unknown
10:00 AM 73.4 °F 73.4 °F 100% 30.01 in - SSE 25.3 mph - N/A   Unknown
10:30 AM 75.2 °F 75.2 °F 100% 30.01 in - SSE 24.2 mph - N/A   Unknown
11:00 AM 77.0 °F 75.2 °F 94% 30.01 in - SSE 24.2 mph - N/A   Unknown
11:38 AM 75.2 °F 73.4 °F 94% 29.98 in - SSE 23.0 mph 34.5 mph N/A   Unknown
11:40 AM 71.6 °F 69.8 °F 94% 29.98 in - ESE 29.9 mph - N/A   Unknown
11:56 AM 77.0 °F 75.2 °F 94% 29.98 in - SE 15.0 mph - N/A   Unknown
12:00 PM 76 °F 73 °F 86% 29.98 in - SE 15.0 mph - -  
12:00 PM 77.0 °F 73.4 °F 89% 29.98 in - SE 15.0 mph - N/A   Unknown
12:16 PM 75.2 °F 71.6 °F 89% 29.95 in - ESE 17.3 mph 28.8 mph N/A   Unknown
12:30 PM 75.2 °F 73.4 °F 94% 29.95 in - ESE 18.4 mph - N/A   Unknown
1:00 PM 77.0 °F 73.4 °F 89% 29.95 in - SE 23.0 mph - N/A   Unknown
1:30 PM 77.0 °F 73.4 °F 89% 29.95 in - ESE 20.7 mph - N/A   Unknown
2:00 PM 77.0 °F 73.4 °F 89% 29.92 in - SE 23.0 mph - N/A   Unknown
2:15 PM 75.2 °F 71.6 °F 89% 29.92 in - ESE 26.5 mph 41.4 mph N/A   Unknown
2:17 PM 75.2 °F 73.4 °F 94% 29.92 in - East 39.1 mph - N/A   Unknown
2:30 PM 73.4 °F 71.6 °F 94% 29.92 in - ESE 29.9 mph - N/A   Unknown
3:00 PM 74 °F 71 °F 89% 29.92 in - ESE 26.5 mph - -  
3:00 PM 75.2 °F 71.6 °F 89% 29.92 in - ESE 26.5 mph - N/A   Unknown
3:30 PM 75.2 °F 73.4 °F 94% 29.92 in - ESE 27.6 mph - N/A   Unknown
4:00 PM 75.2 °F 69.8 °F 83% 29.92 in - ESE 23.0 mph - N/A   Unknown
4:30 PM 75.2 °F 71.6 °F 89% 29.95 in - SE 28.8 mph - N/A   Unknown
5:00 PM 75.2 °F 71.6 °F 89% 29.95 in - SE 20.7 mph - N/A   Unknown
5:30 PM 75.2 °F 71.6 °F 89% 29.95 in - ESE 20.7 mph - N/A   Unknown
6:00 PM 73 °F 72 °F 95% 29.96 in - SSE 21.9 mph - -  
6:00 PM 73.4 °F 71.6 °F 94% 29.95 in - SSE 21.9 mph - N/A   Unknown
6:30 PM 73.4 °F 71.6 °F 94% 29.95 in - SE 23.0 mph - N/A   Unknown
7:00 PM 73.4 °F 73.4 °F 100% 29.95 in - SE 21.9 mph - N/A   Unknown
7:11 PM 73.4 °F 71.6 °F 94% 29.95 in - East 27.6 mph - N/A   Unknown
7:30 PM 73.4 °F 71.6 °F 94% 29.95 in - ESE 25.3 mph - N/A   Unknown
8:00 PM 75.2 °F 73.4 °F 94% 29.98 in - SE 26.5 mph - N/A   Unknown
8:23 PM 75.2 °F 73.4 °F 94% 29.95 in - ESE 28.8 mph 44.9 mph N/A   Unknown
8:25 PM 73.4 °F 71.6 °F 94% 29.98 in - East 35.7 mph - N/A   Unknown
8:30 PM 69.8 °F 69.8 °F 100% 29.95 in - East 38.0 mph - N/A   Unknown
8:45 PM - - N/A% 29.98 in - East 39.1 mph 50.6 mph N/A   Unknown
8:48 PM 69.8 °F 69.8 °F 100% 29.98 in - East 26.5 mph 47.2 mph N/A   Unknown
9:00 PM 70 °F 68 °F 93% 30.00 in - East 24.2 mph - -  
9:00 PM 69.8 °F 68.0 °F 94% 30.01 in - East 24.2 mph - N/A   Unknown
9:27 PM 73.4 °F 71.6 °F 94% 30.01 in - ESE 20.7 mph - N/A   Unknown
9:30 PM 73.4 °F 71.6 °F 94% 30.01 in - ESE 20.7 mph - N/A   Unknown
10:00 PM 73.4 °F 73.4 °F 100% 30.01 in - ESE 19.6 mph - N/A   Unknown
10:30 PM 71.6 °F 71.6 °F 100% 29.98 in - ENE 16.1 mph - N/A   Unknown
10:46 PM 75.2 °F 73.4 °F 94% 29.98 in - ESE 23.0 mph - N/A   Unknown
11:00 PM 75.2 °F 71.6 °F 89% 29.98 in - SE 23.0 mph - N/A   Unknown
11:30 PM 75.2 °F 71.6 °F 89% 29.98 in - SE 23.0 mph - N/A   Unknown